Overview Statistics Trail Chart Weather Telemetry Raw packets
 

This is the latest recevied weather packets stored in our database for station/object KN6WGU. If no packets are shown the sender has not sent any weather packets the latest 10 day(s).

<< 69 70 71 72 73 74 75 >>
Time Temp. Humidity Pressure Rain* Wind** Luminosity Snow
1788120705 23.89° C 82% 1011.7 hPa 0 mm - 95 W/m² -
1788120400 24.44° C 82% 1011.6 hPa 0 mm - 119 W/m² -
1788120104 23.89° C 82% 1011.3 hPa 0 mm - 147 W/m² -
1788119795 23.89° C 83% 1011.3 hPa 0 mm - 150 W/m² -
1788119493 23.89° C 83% 1011.2 hPa 0 mm - 142 W/m² -
1788119187 23.89° C 82% 1011.6 hPa 0 mm - 147 W/m² -
1788118886 23.89° C 82% 1011.6 hPa 0 mm - 145 W/m² -
1788118581 23.89° C 83% 1011.7 hPa 0 mm - 141 W/m² -
1788118275 23.89° C 83% 1011.7 hPa 0 mm - 140 W/m² -
1788117966 23.89° C 83% 1011.8 hPa 0 mm - 137 W/m² -
1788117665 23.89° C 83% 1012 hPa 0 mm - 138 W/m² -
1788117361 23.89° C 84% 1012.1 hPa 0 mm - 144 W/m² -
1788117056 23.89° C 83% 1012.4 hPa 0 mm - 142 W/m² -
1788116751 23.89° C 83% 1012.3 hPa 0 mm - 145 W/m² -
1788116446 23.89° C 83% 1012.2 hPa 0 mm - 146 W/m² -
1788116139 23.33° C 83% 1012.2 hPa 0 mm - 128 W/m² -
1788115836 23.33° C 83% 1012.4 hPa 0 mm - 128 W/m² -
1788115534 23.33° C 84% 1012.6 hPa 0 mm - 152 W/m² -
1788115229 23.33° C 84% 1012.5 hPa 0 mm - 152 W/m² -
1788114924 23.33° C 85% 1013 hPa 0 mm - 137 W/m² -
1788114630 23.33° C 84% 1012.8 hPa 0 mm - 115 W/m² -
1788114315 23.33° C 84% 1012.9 hPa 0 mm - 113 W/m² -
1788114011 23.33° C 84% 1013 hPa 0 mm - 107 W/m² -
1788113707 23.33° C 84% 1013.1 hPa 0 mm - 87 W/m² -
1788113406 23.33° C 84% 1013.2 hPa 0 mm - 68 W/m² -

* Rain latest hour (hover to see other rain measurements)
** Current wind speed in m/s (hover to see current wind gust speed)